Time,TemperatureF,DewpointF,PressureIn,WindDirection,WindDirectionDegrees,WindSpeedMPH,WindSpeedGustMPH,Humidity,HourlyPrecipIn,Conditions,Clouds,dailyrainin,SolarRadiationWatts/m^2,SoftwareType,DateUTC
2013-05-10 00:01:00,45.0,39.0,-100.00,ENE,76,0.0,4.0,79,0.00,,,0.00,0.000000,,2013-05-10 07:01:00,
2013-05-10 00:11:00,45.0,39.0,-100.00,ENE,76,0.0,4.0,79,0.00,,,0.00,0.000000,,2013-05-10 07:11:00,
2013-05-10 00:22:00,45.0,39.0,-100.00,ENE,76,0.0,4.0,79,0.00,,,0.00,0.000000,,2013-05-10 07:22:00,
2013-05-10 00:31:00,45.0,39.0,-100.00,ENE,76,0.0,4.0,79,0.00,,,0.00,0.000000,,2013-05-10 07:31:00,
2013-05-10 01:02:00,43.0,38.0,-100.00,North,353,0.0,4.0,82,0.00,,,0.00,0.000000,,2013-05-10 08:02:00,
2013-05-10 01:12:00,43.0,38.0,-100.00,North,353,0.0,4.0,82,0.00,,,0.00,0.000000,,2013-05-10 08:12:00,
2013-05-10 01:21:00,43.0,38.0,-100.00,North,353,0.0,4.0,82,0.00,,,0.00,0.000000,,2013-05-10 08:21:00,
2013-05-10 01:32:00,43.0,38.0,-100.00,North,353,0.0,4.0,82,0.00,,,0.00,0.000000,,2013-05-10 08:32:00,
2013-05-10 02:01:00,37.0,35.0,-100.00,North,8,0.0,2.0,91,0.00,,,0.00,0.000000,,2013-05-10 09:01:00,
2013-05-10 02:11:00,37.0,35.0,-100.00,North,8,0.0,2.0,91,0.00,,,0.00,0.000000,,2013-05-10 09:11:00,
2013-05-10 02:21:00,37.0,35.0,-100.00,North,8,0.0,2.0,91,0.00,,,0.00,0.000000,,2013-05-10 09:21:00,
2013-05-10 02:32:00,37.0,35.0,-100.00,North,8,0.0,2.0,91,0.00,,,0.00,0.000000,,2013-05-10 09:32:00,
2013-05-10 03:02:00,37.0,36.0,-100.00,North,359,0.0,0.0,95,0.00,,,0.00,0.000000,,2013-05-10 10:02:00,
2013-05-10 03:12:00,37.0,36.0,-100.00,North,359,0.0,0.0,95,0.00,,,0.00,0.000000,,2013-05-10 10:12:00,
2013-05-10 03:23:00,37.0,36.0,-100.00,North,359,0.0,0.0,95,0.00,,,0.00,0.000000,,2013-05-10 10:23:00,
2013-05-10 03:32:00,37.0,36.0,-100.00,North,359,0.0,0.0,95,0.00,,,0.00,0.000000,,2013-05-10 10:32:00,
2013-05-10 04:02:00,38.0,37.0,-100.00,NNE,19,0.0,2.0,95,0.00,,,0.00,0.000000,,2013-05-10 11:02:00,
2013-05-10 04:12:00,38.0,37.0,-100.00,NNE,19,0.0,2.0,95,0.00,,,0.00,0.000000,,2013-05-10 11:12:00,
2013-05-10 04:21:00,38.0,37.0,-100.00,NNE,19,0.0,2.0,95,0.00,,,0.00,0.000000,,2013-05-10 11:21:00,
2013-05-10 04:31:00,38.0,37.0,-100.00,NNE,19,0.0,2.0,95,0.00,,,0.00,0.000000,,2013-05-10 11:31:00,
2013-05-10 07:02:00,36.0,35.0,-100.00,North,10,0.0,4.0,95,-99.99,,,0.00,10.000000,,2013-05-10 14:02:00,
2013-05-10 07:11:00,36.0,35.0,-100.00,North,10,0.0,4.0,95,-99.99,,,0.00,10.000000,,2013-05-10 14:11:00,
2013-05-10 07:21:00,36.0,35.0,-100.00,North,10,0.0,4.0,95,-99.99,,,0.00,10.000000,,2013-05-10 14:21:00,
2013-05-10 07:32:00,36.0,35.0,-100.00,North,10,0.0,4.0,95,-99.99,,,0.00,10.000000,,2013-05-10 14:32:00,
2013-05-10 08:01:00,49.0,41.0,-100.00,North,11,1.0,5.0,73,0.00,,,0.00,109.000000,,2013-05-10 15:01:00,
2013-05-10 08:20:00,-999.0,-99.9,-100.00,North,11,1.0,5.0,73,0.00,,,0.00,109.000000,,2013-05-10 15:20:00,
2013-05-10 08:32:00,49.0,41.0,-100.00,North,11,1.0,5.0,73,0.00,,,0.00,109.000000,,2013-05-10 15:32:00,
2013-05-10 09:02:00,55.0,40.0,-100.00,NNE,22,4.0,10.0,56,0.00,,,0.00,522.000000,,2013-05-10 16:02:00,
2013-05-10 09:23:00,55.0,40.0,-100.00,NNE,22,4.0,10.0,56,0.00,,,0.00,522.000000,,2013-05-10 16:23:00,
2013-05-10 09:32:00,55.0,40.0,-100.00,NNE,22,4.0,10.0,56,0.00,,,0.00,522.000000,,2013-05-10 16:32:00,
2013-05-10 10:02:00,61.0,39.0,-100.00,SSW,209,3.0,13.0,44,0.00,,,0.00,782.000000,,2013-05-10 17:02:00,
2013-05-10 10:32:00,61.0,39.0,-100.00,SSW,209,3.0,13.0,44,0.00,,,0.00,782.000000,,2013-05-10 17:32:00,
2013-05-10 11:10:00,-999.0,-99.9,-100.00,NNE,22,5.0,17.0,39,0.00,,,0.00,989.000000,,2013-05-10 18:10:00,
2013-05-10 11:21:00,62.0,37.0,-100.00,NNE,22,5.0,17.0,39,0.00,,,0.00,989.000000,,2013-05-10 18:21:00,
2013-05-10 11:34:00,62.0,37.0,-100.00,NNE,22,5.0,17.0,39,0.00,,,0.00,989.000000,,2013-05-10 18:34:00,
2013-05-10 12:02:00,64.0,36.0,-100.00,North,7,4.0,15.0,35,0.00,,,0.00,1153.000000,,2013-05-10 19:02:00,
2013-05-10 12:11:00,64.0,36.0,-100.00,North,7,4.0,15.0,35,0.00,,,0.00,1153.000000,,2013-05-10 19:11:00,
2013-05-10 12:21:00,64.0,36.0,-100.00,North,7,4.0,15.0,35,0.00,,,0.00,1153.000000,,2013-05-10 19:21:00,
2013-05-10 12:32:00,64.0,36.0,-100.00,North,7,4.0,15.0,35,0.00,,,0.00,1153.000000,,2013-05-10 19:32:00,
2013-05-10 13:01:00,66.0,34.0,-100.00,NNE,18,4.0,17.0,31,0.00,,,0.00,1240.000000,,2013-05-10 20:01:00,
2013-05-10 13:21:00,66.0,34.0,-100.00,NNE,18,4.0,17.0,31,0.00,,,0.00,1240.000000,,2013-05-10 20:21:00,
2013-05-10 13:31:00,66.0,34.0,-100.00,NNE,18,4.0,17.0,31,0.00,,,0.00,1240.000000,,2013-05-10 20:31:00,
2013-05-10 14:01:00,66.0,33.0,-100.00,North,2,4.0,17.0,29,0.00,,,0.00,1199.000000,,2013-05-10 21:01:00,
2013-05-10 14:11:00,66.0,33.0,-100.00,North,2,4.0,17.0,29,0.00,,,0.00,1199.000000,,2013-05-10 21:11:00,
2013-05-10 14:24:00,66.0,33.0,-100.00,North,2,4.0,17.0,29,0.00,,,0.00,1199.000000,,2013-05-10 21:24:00,
2013-05-10 14:32:00,66.0,33.0,-100.00,North,2,4.0,17.0,29,0.00,,,0.00,1199.000000,,2013-05-10 21:32:00,
2013-05-10 15:02:00,70.0,34.0,-100.00,North,10,5.0,14.0,26,0.00,,,0.00,1060.000000,,2013-05-10 22:02:00,
2013-05-10 16:02:00,70.0,29.0,-100.00,North,349,6.0,14.0,22,0.00,,,0.00,844.000000,,2013-05-10 23:02:00,
2013-05-10 16:22:00,70.0,29.0,-100.00,North,349,6.0,14.0,22,0.00,,,0.00,844.000000,,2013-05-10 23:22:00,
2013-05-10 16:32:00,70.0,29.0,-100.00,North,349,6.0,14.0,22,0.00,,,0.00,844.000000,,2013-05-10 23:32:00,
2013-05-10 17:01:00,68.0,23.0,-100.00,North,4,5.0,17.0,18,0.00,,,0.00,864.000000,,2013-05-11 00:01:00,
2013-05-10 17:11:00,68.0,23.0,-100.00,North,4,5.0,17.0,18,0.00,,,0.00,864.000000,,2013-05-11 00:11:00,
2013-05-10 17:21:00,68.0,23.0,-100.00,North,4,5.0,17.0,18,0.00,,,0.00,864.000000,,2013-05-11 00:21:00,
2013-05-10 17:32:00,68.0,23.0,-100.00,North,4,5.0,17.0,18,0.00,,,0.00,864.000000,,2013-05-11 00:32:00,
2013-05-10 18:01:00,66.0,26.0,-100.00,NNE,19,3.0,14.0,22,0.00,,,0.00,649.000000,,2013-05-11 01:01:00,
2013-05-10 18:11:00,66.0,26.0,-100.00,NNE,19,3.0,14.0,22,0.00,,,0.00,649.000000,,2013-05-11 01:11:00,
2013-05-10 18:21:00,66.0,26.0,-100.00,NNE,19,3.0,14.0,22,0.00,,,0.00,649.000000,,2013-05-11 01:21:00,
2013-05-10 18:31:00,66.0,26.0,-100.00,NNE,19,3.0,14.0,22,0.00,,,0.00,649.000000,,2013-05-11 01:31:00,
2013-05-10 19:02:00,61.0,25.0,-100.00,North,350,2.0,13.0,25,0.00,,,0.00,74.000000,,2013-05-11 02:02:00,
2013-05-10 19:11:00,61.0,25.0,-100.00,North,350,2.0,13.0,25,0.00,,,0.00,74.000000,,2013-05-11 02:11:00,
2013-05-10 19:21:00,61.0,25.0,-100.00,North,350,2.0,13.0,25,0.00,,,0.00,74.000000,,2013-05-11 02:21:00,
2013-05-10 19:32:00,61.0,25.0,-100.00,North,350,2.0,13.0,25,0.00,,,0.00,74.000000,,2013-05-11 02:32:00,
2013-05-10 20:01:00,59.0,23.0,-100.00,North,357,5.0,13.0,25,0.00,,,0.00,22.000000,,2013-05-11 03:01:00,
2013-05-10 20:11:00,59.0,23.0,-100.00,North,357,5.0,13.0,25,0.00,,,0.00,22.000000,,2013-05-11 03:11:00,
2013-05-10 20:21:00,59.0,23.0,-100.00,North,357,5.0,13.0,25,0.00,,,0.00,22.000000,,2013-05-11 03:21:00,
2013-05-10 20:32:00,59.0,23.0,-100.00,North,357,5.0,13.0,25,0.00,,,0.00,22.000000,,2013-05-11 03:32:00,
2013-05-10 21:02:00,57.0,23.0,-100.00,North,3,2.0,13.0,27,0.00,,,0.00,0.000000,,2013-05-11 04:02:00,
2013-05-10 21:12:00,57.0,23.0,-100.00,North,3,2.0,13.0,27,0.00,,,0.00,0.000000,,2013-05-11 04:12:00,
2013-05-10 21:23:00,57.0,23.0,-100.00,North,3,2.0,13.0,27,0.00,,,0.00,0.000000,,2013-05-11 04:23:00,
2013-05-10 21:32:00,57.0,23.0,-100.00,North,3,2.0,13.0,27,0.00,,,0.00,0.000000,,2013-05-11 04:32:00,
2013-05-10 22:02:00,57.0,26.0,-100.00,North,357,1.0,13.0,30,0.00,,,0.00,0.000000,,2013-05-11 05:02:00,
2013-05-10 22:12:00,57.0,26.0,-100.00,North,357,1.0,13.0,30,0.00,,,0.00,0.000000,,2013-05-11 05:12:00,
2013-05-10 22:21:00,57.0,26.0,-100.00,North,357,1.0,13.0,30,0.00,,,0.00,0.000000,,2013-05-11 05:21:00,
2013-05-10 22:32:00,57.0,26.0,-100.00,North,357,1.0,13.0,30,0.00,,,0.00,0.000000,,2013-05-11 05:32:00,
2013-05-10 23:02:00,57.0,26.0,-100.00,North,4,1.0,10.0,30,0.00,,,-99.99,0.000000,,2013-05-11 06:02:00,
2013-05-10 23:12:00,57.0,26.0,-100.00,North,4,1.0,10.0,30,0.00,,,-99.99,0.000000,,2013-05-11 06:12:00,
2013-05-10 23:21:00,57.0,26.0,-100.00,North,4,1.0,10.0,30,0.00,,,-99.99,0.000000,,2013-05-11 06:21:00,
2013-05-10 23:31:00,57.0,26.0,-100.00,North,4,1.0,10.0,30,0.00,,,-99.99,0.000000,,2013-05-11 06:31:00,